sat.trackr.live / text

‹ back to catalog

ONEWEB-0159

NORAD 48062 · 2021-025W

PAYLOAD ACTIVE UNKNOWN

§ Identity

Operator
Country
UK
Launch date
2021-03-25
Launch site
VOSTO
Launch vehicle
Mass (kg)
RCS (m²)

Purposes: comms

External: N2YO · Heavens-Above · Gunter

§ Orbital elements

Epoch: 2026-09-19T21:06:46.770336Z

Period
109.63 min
Inclination
87.8925°
Eccentricity
0.0001613
Mean motion
13.13469172 rev/d
Perigee alt
1,208.5 km
Apogee alt
1,211.0 km
Semi-major
7,587.9 km
B*
7.5150e-4
RAAN
301.3806°
Arg perigee
94.7731°
Mean anomaly
265.3582°
Rev number
26,603

§ Raw data

ONEWEB-01591 48062U 21025W   26262.87970799  .00000287  00000+0  75150-3 0  99912 48062  87.8925 301.3806 0001613  94.7731 265.3582 13.13469172266039

JSON: /api/v1/satellites/48062 · /tle

For live sub-satellite position, see the globe view (requires WebGL).

§ Visibility from observer

Set your observer location to see the next 7 days of passes ≥ 10°. The values pass through the URL so the page stays shareable.

No JS? Fill the form by hand. The geolocation button needs JavaScript.